contact:dominique.lefevre@mio.osupytheas.fr, maurice.libes@osupytheas.fr, didier.mallarino@osupytheas.fr
Project:EMSO http://www.emso-fr.org/EMSO-France
Depth: 2436.0 m
Title:EMSO Ligure Ouest : Data MII capteur AQUADOPP
Date,Latitude,Longitude,X_East,Y_North,Z_Up,Amplitude_X,Amplitude_Y,Amplitude_Z,Batterie,SoundSpeed,Heading,Pitch,Roll,Pressure,TIS,Speed,Direction
, degrees North, degrees East, m.s-1, m.s-1,m.s-1, 1, 1, 1, Volt, m.s-1, degree, degree, degree, dbar, degree_C, m.s-1, degree
2022-07-07T00:04:03,42.805,6.029,-0.049,0.028,0.003,104.0,106.0,101.0,13.4,1505.2,326.7,-0.8,1.8,2470.981,13.28,0.056,299.7
2022-07-07T00:07:03,42.805,6.029,-0.045,0.029,-0.02,104.0,104.0,101.0,13.3,1505.2,328.6,-0.8,1.8,2470.977,13.28,0.053,302.8
2022-07-07T00:10:03,42.805,6.029,-0.046,0.046,-0.006,104.0,106.0,101.0,13.3,1505.2,321.5,-0.8,1.8,2470.976,13.28,0.065,315.0
2022-07-07T00:13:03,42.805,6.029,-0.037,0.039,-0.019,106.0,104.0,101.0,13.3,1505.2,328.3,-0.8,1.8,2470.962,13.28,0.053,316.5
2022-07-07T00:16:03,42.805,6.029,-0.038,0.025,-0.006,104.0,105.0,101.0,13.4,1505.2,330.7,-0.8,1.8,2470.965,13.29,0.045,303.3
2022-07-07T00:19:03,42.805,6.029,-0.025,0.031,-0.03,102.0,104.0,102.0,13.3,1505.2,332.7,-0.8,1.8,2471.013,13.29,0.039,321.1
2022-07-07T00:22:03,42.805,6.029,-0.03,0.018,-0.018,107.0,103.0,102.0,13.3,1505.2,324.6,-0.7,1.8,2470.93,13.29,0.034,301.0
2022-07-07T00:25:03,42.805,6.029,-0.028,0.024,0.012,105.0,104.0,101.0,13.4,1505.2,327.4,-0.7,1.8,2470.959,13.29,0.036,310.6
2022-07-07T00:28:03,42.805,6.029,-0.039,0.027,-0.002,104.0,104.0,102.0,13.3,1505.2,322.8,-0.7,1.8,2470.979,13.29,0.047,304.7
2022-07-07T00:31:03,42.805,6.029,-0.045,0.06,0.002,104.0,105.0,101.0,13.3,1505.2,329.3,-0.8,1.8,2470.979,13.29,0.074,323.1
2022-07-07T00:34:03,42.805,6.029,-0.046,0.026,-0.001,103.0,103.0,102.0,13.3,1505.2,319.9,-0.7,1.8,2470.954,13.29,0.052,299.5
2022-07-07T00:37:03,42.805,6.029,-0.037,0.016,0.029,104.0,104.0,102.0,13.3,1505.2,320.9,-0.7,1.8,2470.974,13.29,0.04,293.4
2022-07-07T00:40:03,42.805,6.029,-0.046,0.031,-0.037,104.0,105.0,102.0,13.4,1505.2,328.2,-0.8,1.8,2470.975,13.29,0.055,304.0
2022-07-07T00:43:03,42.805,6.029,-0.039,0.019,-0.016,105.0,104.0,101.0,13.3,1505.2,327.8,-0.8,1.8,2470.985,13.29,0.043,296.0
2022-07-07T00:46:03,42.805,6.029,-0.032,0.029,0.012,105.0,103.0,102.0,13.3,1505.2,323.7,-0.8,1.8,2470.964,13.29,0.043,312.2
2022-07-07T00:49:03,42.805,6.029,-0.043,0.036,-0.027,105.0,104.0,101.0,13.3,1505.2,330.4,-0.8,1.8,2470.976,13.29,0.056,309.9
2022-07-07T00:52:03,42.805,6.029,-0.043,0.036,-0.017,104.0,103.0,102.0,13.4,1505.2,324.0,-0.7,1.8,2470.985,13.29,0.056,309.9
2022-07-07T00:55:03,42.805,6.029,-0.039,0.022,0.028,104.0,104.0,102.0,13.4,1505.2,319.6,-0.7,1.8,2470.962,13.29,0.044,299.4
2022-07-07T00:58:03,42.805,6.029,-0.044,0.041,-0.016,104.0,104.0,102.0,13.4,1505.2,331.9,-0.7,1.9,2470.957,13.29,0.06,313.0
2022-07-07T01:04:03,42.805,6.029,-0.033,0.031,-0.024,106.0,106.0,104.0,13.4,1505.2,321.8,-0.7,1.8,2470.993,13.28,0.045,313.2
2022-07-07T01:07:03,42.805,6.029,-0.043,0.025,0.001,105.0,105.0,103.0,13.4,1505.2,327.6,-0.8,1.8,2470.989,13.28,0.049,300.2
2022-07-07T01:10:03,42.805,6.029,-0.05,0.027,0.015,105.0,103.0,102.0,13.4,1505.2,331.8,-0.8,1.8,2471.019,13.28,0.056,298.4
2022-07-07T01:13:03,42.805,6.029,-0.031,0.026,0.013,103.0,105.0,101.0,13.4,1505.2,329.3,-0.8,1.9,2470.982,13.29,0.04,310.0
2022-07-07T01:16:03,42.805,6.029,-0.041,0.047,0.006,105.0,104.0,102.0,13.3,1505.2,328.8,-0.8,1.8,2470.967,13.29,0.062,318.9
2022-07-07T01:19:03,42.805,6.029,-0.048,0.064,0.001,103.0,103.0,102.0,13.4,1505.2,326.1,-0.8,1.8,2470.979,13.29,0.079,323.1
2022-07-07T01:22:03,42.805,6.029,-0.041,0.016,-0.053,104.0,106.0,102.0,13.4,1505.2,326.4,-0.7,1.8,2470.96,13.29,0.044,291.3
2022-07-07T01:25:03,42.805,6.029,-0.018,0.029,-0.009,104.0,106.0,101.0,13.3,1505.2,323.4,-0.8,1.8,2470.957,13.29,0.034,328.2
2022-07-07T01:28:03,42.805,6.029,-0.038,0.038,-0.033,104.0,104.0,101.0,13.3,1505.2,330.3,-0.7,1.8,2470.946,13.29,0.053,315.0
2022-07-07T01:31:03,42.805,6.029,-0.038,0.022,-0.016,106.0,103.0,101.0,13.4,1505.2,324.4,-0.8,1.8,2470.957,13.29,0.043,300.1
2022-07-07T01:34:03,42.805,6.029,-0.051,0.028,0.014,104.0,106.0,101.0,13.3,1505.2,326.6,-0.8,1.8,2470.984,13.29,0.058,298.8
2022-07-07T01:37:03,42.805,6.029,-0.049,0.021,-0.006,105.0,104.0,100.0,13.3,1505.2,323.8,-0.7,1.8,2470.962,13.29,0.053,293.2
2022-07-07T01:40:03,42.805,6.029,-0.057,0.037,0.018,105.0,104.0,101.0,13.3,1505.2,321.6,-0.7,1.8,2470.894,13.29,0.067,303.0
2022-07-07T01:43:03,42.805,6.029,-0.039,0.04,0.014,105.0,104.0,102.0,13.4,1505.2,319.7,-0.8,1.8,2470.936,13.29,0.055,315.7
2022-07-07T01:46:03,42.805,6.029,-0.04,0.032,-0.022,105.0,105.0,102.0,13.4,1505.2,328.1,-0.7,1.8,2470.973,13.29,0.051,308.7
2022-07-07T01:49:03,42.805,6.029,-0.048,0.026,-0.003,106.0,104.0,101.0,13.3,1505.2,323.9,-0.7,1.8,2470.942,13.29,0.054,298.4
2022-07-07T01:52:03,42.805,6.029,-0.03,0.017,-0.015,104.0,106.0,102.0,13.4,1505.2,320.8,-0.7,1.8,2470.929,13.29,0.034,299.5
2022-07-07T01:55:03,42.805,6.029,-0.062,0.048,-0.011,105.0,104.0,103.0,13.4,1505.2,331.2,-0.7,1.8,2470.882,13.29,0.078,307.7
2022-07-07T01:58:03,42.805,6.029,-0.031,0.033,-0.005,105.0,103.0,102.0,13.4,1505.2,333.6,-0.7,1.8,2470.904,13.29,0.045,316.8
2022-07-07T02:04:03,42.805,6.029,-0.025,0.032,0.018,105.0,104.0,102.0,13.4,1505.2,328.2,-0.8,1.8,2471.011,13.28,0.04,322.0
2022-07-07T02:07:03,42.805,6.029,-0.039,0.023,-0.016,103.0,104.0,101.0,13.4,1505.2,322.7,-0.8,1.8,2470.977,13.28,0.045,300.5
2022-07-07T02:10:03,42.805,6.029,-0.046,0.028,0.005,105.0,104.0,105.0,13.4,1505.2,327.3,-0.8,1.8,2470.955,13.28,0.053,301.3
2022-07-07T02:13:03,42.805,6.029,-0.039,0.034,-0.004,106.0,105.0,101.0,13.3,1505.2,329.5,-0.8,1.8,2470.962,13.29,0.051,311.1
2022-07-07T02:16:03,42.805,6.029,-0.039,0.015,0.006,105.0,104.0,102.0,13.4,1505.2,326.8,-0.8,1.8,2470.952,13.29,0.041,291.0
2022-07-07T02:19:03,42.805,6.029,-0.037,0.02,-0.004,105.0,106.0,101.0,13.3,1505.2,332.4,-0.7,1.8,2470.939,13.29,0.042,298.4
2022-07-07T02:22:03,42.805,6.029,-0.044,0.024,-0.024,105.0,105.0,103.0,13.4,1505.2,322.1,-0.7,1.8,2470.965,13.29,0.05,298.6
2022-07-07T02:25:03,42.805,6.029,-0.027,0.014,-0.037,105.0,105.0,102.0,13.4,1505.2,322.6,-0.7,1.8,2470.93,13.29,0.03,297.4
2022-07-07T02:28:03,42.805,6.029,-0.028,0.025,0.02,105.0,106.0,101.0,13.3,1505.2,320.9,-0.7,1.8,2470.943,13.29,0.037,311.8
2022-07-07T02:31:03,42.805,6.029,-0.022,0.032,-0.014,105.0,104.0,103.0,13.4,1505.2,329.1,-0.8,1.8,2470.914,13.29,0.038,325.5
2022-07-07T02:34:03,42.805,6.029,-0.023,0.012,-0.012,104.0,105.0,102.0,13.4,1505.2,324.0,-0.8,1.8,2470.974,13.29,0.025,297.6
2022-07-07T02:37:03,42.805,6.029,-0.031,0.045,0.015,104.0,105.0,102.0,13.3,1505.2,330.1,-0.8,1.8,2470.899,13.29,0.054,325.4
2022-07-07T02:40:03,42.805,6.029,-0.028,0.033,-0.024,104.0,105.0,102.0,13.4,1505.2,328.2,-0.8,1.8,2470.925,13.29,0.043,319.7
2022-07-07T02:43:03,42.805,6.029,-0.037,0.022,-0.021,105.0,103.0,103.0,13.4,1505.2,320.8,-0.8,1.8,2470.901,13.29,0.043,300.7
2022-07-07T02:46:03,42.805,6.029,-0.039,0.015,-0.016,105.0,104.0,101.0,13.3,1505.2,328.8,-0.8,1.8,2470.928,13.29,0.041,291.0
2022-07-07T02:49:03,42.805,6.029,-0.052,0.02,-0.043,105.0,104.0,104.0,13.4,1505.2,323.0,-0.8,1.8,2470.904,13.29,0.055,291.0
2022-07-07T02:52:03,42.805,6.029,-0.039,0.028,-0.003,106.0,105.0,102.0,13.4,1505.2,332.2,-0.7,1.8,2470.923,13.29,0.048,305.7
2022-07-07T02:55:03,42.805,6.029,-0.051,0.02,-0.015,107.0,106.0,102.0,13.4,1505.2,326.1,-0.7,1.9,2470.908,13.29,0.054,291.4
2022-07-07T02:58:03,42.805,6.029,-0.033,0.04,0.002,104.0,104.0,102.0,13.3,1505.2,329.6,-0.8,1.8,2470.942,13.29,0.051,320.5
2022-07-07T03:04:03,42.805,6.029,-0.03,0.022,-0.006,106.0,105.0,103.0,13.4,1505.2,331.6,-0.7,1.8,2470.974,13.28,0.037,306.3
2022-07-07T03:07:03,42.805,6.029,-0.061,0.028,-0.018,104.0,105.0,102.0,13.4,1505.2,323.9,-0.8,1.9,2470.958,13.28,0.067,294.7
2022-07-07T03:10:03,42.805,6.029,-0.017,0.028,0.0,105.0,105.0,102.0,13.3,1505.2,327.6,-0.7,1.8,2470.977,13.28,0.032,328.7
2022-07-07T03:13:03,42.805,6.029,-0.042,0.046,-0.011,105.0,105.0,102.0,13.4,1505.2,329.5,-0.8,1.8,2470.959,13.29,0.062,317.6
2022-07-07T03:16:03,42.805,6.029,-0.022,0.032,-0.013,104.0,106.0,102.0,13.4,1505.2,326.1,-0.8,1.8,2470.922,13.29,0.038,325.5
2022-07-07T03:19:03,42.805,6.029,-0.025,0.019,-0.027,107.0,104.0,102.0,13.3,1505.2,330.4,-0.8,1.8,2470.923,13.29,0.031,307.2
2022-07-07T03:22:03,42.805,6.029,-0.04,0.018,-0.024,106.0,105.0,102.0,13.4,1505.2,323.5,-0.8,1.8,2470.916,13.29,0.043,294.2
2022-07-07T03:25:03,42.805,6.029,-0.023,0.023,-0.029,104.0,105.0,102.0,13.4,1505.2,327.9,-0.8,1.8,2470.904,13.29,0.032,315.0
2022-07-07T03:28:03,42.805,6.029,-0.031,0.016,-0.016,106.0,105.0,102.0,13.4,1505.2,321.1,-0.8,1.8,2470.933,13.29,0.034,297.3
2022-07-07T03:31:03,42.805,6.029,-0.037,0.032,-0.01,105.0,104.0,103.0,13.4,1505.2,320.1,-0.8,1.8,2470.928,13.29,0.048,310.9
2022-07-07T03:34:03,42.805,6.029,-0.031,0.017,-0.029,105.0,104.0,102.0,13.4,1505.2,331.4,-0.8,1.8,2470.939,13.29,0.035,298.7
2022-07-07T03:37:03,42.805,6.029,-0.013,0.016,0.001,105.0,106.0,103.0,13.4,1505.2,328.7,-0.7,1.8,2470.946,13.29,0.02,320.9
2022-07-07T03:40:03,42.805,6.029,-0.023,0.009,0.012,106.0,105.0,103.0,13.4,1505.2,326.1,-0.7,1.8,2470.945,13.29,0.024,291.4
2022-07-07T03:43:03,42.805,6.029,-0.034,0.014,-0.021,105.0,104.0,103.0,13.4,1505.2,323.1,-0.7,1.9,2470.9,13.29,0.036,292.4
2022-07-07T03:46:03,42.805,6.029,-0.023,0.036,0.003,106.0,106.0,102.0,13.4,1505.2,325.3,-0.7,1.8,2470.916,13.29,0.042,327.4
2022-07-07T03:49:03,42.805,6.029,-0.033,0.035,0.0,107.0,105.0,101.0,13.4,1505.2,327.0,-0.8,1.8,2470.882,13.29,0.048,316.7
2022-07-07T03:52:03,42.805,6.029,-0.064,0.02,-0.03,105.0,105.0,103.0,13.4,1505.2,323.9,-0.7,1.8,2470.874,13.29,0.067,287.4
2022-07-07T03:55:03,42.805,6.029,-0.028,0.016,-0.033,107.0,105.0,104.0,13.3,1505.2,325.2,-0.8,1.9,2470.88,13.29,0.032,299.7
2022-07-07T03:58:03,42.805,6.029,-0.049,0.021,-0.04,105.0,105.0,102.0,13.3,1505.2,325.5,-0.8,1.8,2470.889,13.29,0.053,293.2
2022-07-07T04:04:03,42.805,6.029,-0.027,0.023,-0.016,106.0,105.0,102.0,13.3,1505.2,319.9,-0.8,1.8,2470.911,13.28,0.035,310.4
2022-07-07T04:07:03,42.805,6.029,-0.031,0.018,-0.031,105.0,104.0,102.0,13.4,1505.2,325.8,-0.8,1.9,2470.888,13.28,0.035,300.1
2022-07-07T04:10:03,42.805,6.029,-0.058,0.037,-0.005,105.0,105.0,101.0,13.4,1505.2,331.4,-0.7,1.8,2470.92,13.28,0.068,302.5
2022-07-07T04:13:03,42.805,6.029,-0.027,0.028,-0.002,106.0,105.0,102.0,13.4,1505.2,325.3,-0.8,1.8,2470.947,13.28,0.038,316.0
2022-07-07T04:16:03,42.805,6.029,-0.037,0.016,-0.045,106.0,104.0,103.0,13.4,1505.2,321.9,-0.8,1.8,2470.902,13.29,0.04,293.4
2022-07-07T04:19:03,42.805,6.029,-0.027,0.031,0.007,105.0,105.0,101.0,13.4,1505.2,327.0,-0.8,1.8,2470.931,13.29,0.041,318.9
2022-07-07T04:22:03,42.805,6.029,-0.027,0.017,-0.011,105.0,105.0,102.0,13.3,1505.2,322.1,-0.8,1.8,2470.902,13.29,0.031,302.2
2022-07-07T04:25:03,42.805,6.029,-0.042,0.02,-0.013,105.0,105.0,103.0,13.4,1505.2,320.7,-0.8,1.8,2470.874,13.29,0.046,295.5
2022-07-07T04:28:03,42.805,6.029,-0.013,0.024,0.002,106.0,106.0,101.0,13.4,1505.2,321.1,-0.7,1.8,2470.894,13.29,0.027,331.6
2022-07-07T04:31:03,42.805,6.029,-0.029,0.014,-0.028,106.0,104.0,103.0,13.4,1505.2,333.9,-0.7,1.8,2470.893,13.29,0.032,295.8
2022-07-07T04:34:03,42.805,6.029,-0.036,0.021,-0.006,105.0,105.0,103.0,13.4,1505.2,330.3,-0.7,1.8,2470.905,13.29,0.041,300.3
2022-07-07T04:37:03,42.805,6.029,-0.042,0.01,0.0,106.0,106.0,102.0,13.4,1505.2,328.3,-0.8,1.8,2470.895,13.29,0.043,283.4
2022-07-07T04:40:03,42.805,6.029,-0.038,-0.006,-0.03,105.0,104.0,102.0,13.4,1505.2,323.8,-0.7,1.8,2470.831,13.29,0.038,261.0
2022-07-07T04:43:03,42.805,6.029,-0.035,0.022,-0.023,107.0,106.0,102.0,13.4,1505.2,322.7,-0.8,1.8,2470.893,13.29,0.041,302.2
2022-07-07T04:46:03,42.805,6.029,-0.05,0.006,0.002,105.0,104.0,103.0,13.4,1505.2,327.1,-0.8,1.8,2470.866,13.29,0.05,276.8
2022-07-07T04:49:03,42.805,6.029,-0.016,0.019,-0.041,103.0,106.0,103.0,13.4,1505.2,324.2,-0.8,1.8,2470.872,13.29,0.024,319.9
2022-07-07T04:52:03,42.805,6.029,-0.081,0.031,0.01,104.0,105.0,101.0,13.4,1505.2,326.1,-0.7,1.8,2470.842,13.29,0.086,290.9
2022-07-07T04:55:03,42.805,6.029,-0.021,0.029,-0.014,104.0,104.0,101.0,13.4,1505.2,330.3,-0.8,1.8,2470.851,13.29,0.035,324.1
2022-07-07T04:58:03,42.805,6.029,-0.051,0.05,-0.017,106.0,103.0,102.0,13.4,1505.2,324.4,-0.7,1.8,2470.826,13.29,0.071,314.4
2022-07-07T05:04:03,42.805,6.029,-0.037,0.014,-0.015,105.0,104.0,103.0,13.4,1505.2,323.5,-0.7,1.8,2470.902,13.28,0.039,290.7
2022-07-07T05:07:03,42.805,6.029,-0.037,0.012,-0.037,106.0,104.0,102.0,13.4,1505.2,332.9,-0.8,1.8,2470.876,13.28,0.038,288.0
2022-07-07T05:10:03,42.805,6.029,-0.036,0.008,-0.04,105.0,106.0,102.0,13.4,1505.2,326.8,-0.8,1.8,2470.898,13.29,0.036,282.5
2022-07-07T05:13:03,42.805,6.029,-0.026,0.013,-0.019,104.0,103.0,103.0,13.4,1505.2,328.9,-0.8,1.8,2470.863,13.29,0.029,296.6
2022-07-07T05:16:03,42.805,6.029,-0.035,0.019,-0.014,104.0,105.0,100.0,13.3,1505.2,319.4,-0.8,1.8,2470.88,13.29,0.039,298.5
2022-07-07T05:19:03,42.805,6.029,-0.049,0.009,-0.019,106.0,105.0,103.0,13.4,1505.2,329.4,-0.8,1.8,2470.867,13.29,0.049,280.4
2022-07-07T05:22:03,42.805,6.029,-0.035,0.01,-0.026,105.0,105.0,102.0,13.3,1505.2,322.2,-0.8,1.8,2470.855,13.29,0.036,285.9
2022-07-07T05:25:03,42.805,6.029,-0.036,0.022,0.007,106.0,104.0,103.0,13.3,1505.2,332.9,-0.7,1.8,2470.86,13.29,0.042,301.4
2022-07-07T05:28:03,42.805,6.029,-0.04,0.033,-0.052,105.0,105.0,103.0,13.3,1505.2,326.1,-0.7,1.8,2470.882,13.29,0.051,309.5
2022-07-07T05:31:03,42.805,6.029,-0.017,0.008,-0.009,104.0,104.0,103.0,13.3,1505.2,324.9,-0.8,1.8,2470.884,13.29,0.018,295.2
2022-07-07T05:34:03,42.805,6.029,-0.031,0.038,-0.026,103.0,105.0,104.0,13.4,1505.2,329.6,-0.8,1.8,2470.881,13.29,0.049,320.8
2022-07-07T05:37:03,42.805,6.029,-0.031,0.032,-0.016,104.0,104.0,102.0,13.4,1505.2,332.2,-0.8,1.8,2470.862,13.29,0.044,315.9
2022-07-07T05:40:03,42.805,6.029,-0.034,0.022,-0.007,105.0,104.0,102.0,13.3,1505.2,328.4,-0.7,1.8,2470.862,13.29,0.04,302.9
2022-07-07T05:43:03,42.805,6.029,-0.044,0.017,-0.018,105.0,105.0,101.0,13.4,1505.2,324.7,-0.8,1.8,2470.841,13.29,0.047,291.1
2022-07-07T05:46:03,42.805,6.029,-0.014,0.018,-0.01,104.0,105.0,103.0,13.4,1505.2,333.1,-0.8,1.8,2470.868,13.29,0.022,322.1
2022-07-07T05:49:03,42.805,6.029,-0.041,0.012,-0.001,105.0,105.0,101.0,13.3,1505.2,325.7,-0.7,1.8,2470.855,13.29,0.042,286.3
2022-07-07T05:52:03,42.805,6.029,-0.042,0.026,-0.009,107.0,103.0,101.0,13.3,1505.2,324.2,-0.8,1.8,2470.862,13.29,0.049,301.8
2022-07-07T05:55:03,42.805,6.029,-0.024,0.029,-0.03,105.0,105.0,103.0,13.4,1505.2,323.0,-0.8,1.9,2470.842,13.29,0.037,320.4
2022-07-07T05:58:03,42.805,6.029,-0.045,0.019,-0.01,105.0,104.0,103.0,13.3,1505.2,328.5,-0.8,1.8,2470.818,13.29,0.048,292.9
2022-07-07T06:04:03,42.805,6.029,-0.016,0.021,-0.024,105.0,104.0,102.0,13.4,1505.2,333.1,-0.7,1.8,2470.836,13.28,0.026,322.7
2022-07-07T06:07:03,42.805,6.029,-0.013,0.02,-0.023,105.0,105.0,102.0,13.4,1505.2,324.8,-0.8,1.8,2470.882,13.28,0.023,327.0
2022-07-07T06:10:03,42.805,6.029,-0.045,0.031,0.01,106.0,103.0,103.0,13.4,1505.2,323.8,-0.8,1.8,2470.844,13.28,0.054,304.6
2022-07-07T06:13:03,42.805,6.029,-0.03,0.04,0.002,104.0,104.0,103.0,13.4,1505.2,332.7,-0.7,1.8,2470.788,13.29,0.05,323.1
2022-07-07T06:16:03,42.805,6.029,-0.039,0.015,-0.008,106.0,106.0,102.0,13.4,1505.2,332.6,-0.7,1.8,2470.846,13.29,0.041,291.0
2022-07-07T06:19:03,42.805,6.029,-0.025,0.022,-0.005,106.0,104.0,102.0,13.4,1505.2,333.4,-0.8,1.8,2470.823,13.29,0.033,311.3
2022-07-07T06:22:03,42.805,6.029,-0.056,0.014,0.005,105.0,104.0,101.0,13.4,1505.2,330.7,-0.8,1.8,2470.79,13.29,0.057,284.0
2022-07-07T06:25:03,42.805,6.029,-0.017,0.008,-0.02,105.0,103.0,102.0,13.4,1505.2,322.7,-0.7,1.8,2470.82,13.29,0.018,295.2
2022-07-07T06:28:03,42.805,6.029,-0.044,0.015,-0.043,104.0,104.0,102.0,13.4,1505.2,330.5,-0.8,1.8,2470.818,13.29,0.046,288.8
2022-07-07T06:31:03,42.805,6.029,-0.043,0.012,-0.022,104.0,105.0,102.0,13.4,1505.2,327.5,-0.8,1.8,2470.794,13.29,0.044,285.6
2022-07-07T06:34:03,42.805,6.029,-0.029,0.023,-0.05,105.0,104.0,102.0,13.3,1505.2,324.5,-0.8,1.8,2470.792,13.29,0.037,308.4
2022-07-07T06:37:03,42.805,6.029,-0.034,0.01,0.001,104.0,105.0,102.0,13.4,1505.2,329.6,-0.8,1.9,2470.797,13.29,0.035,286.4
2022-07-07T06:40:03,42.805,6.029,-0.025,0.024,-0.007,105.0,105.0,101.0,13.4,1505.2,329.8,-0.7,1.8,2470.822,13.29,0.034,313.8
2022-07-07T06:43:03,42.805,6.029,-0.029,0.01,-0.021,105.0,105.0,102.0,13.3,1505.2,329.8,-0.8,1.8,2470.798,13.29,0.03,289.0
2022-07-07T06:46:03,42.805,6.029,-0.039,0.019,-0.029,106.0,105.0,103.0,13.3,1505.2,323.7,-0.8,1.8,2470.832,13.29,0.043,296.0
2022-07-07T06:49:03,42.805,6.029,-0.035,0.018,-0.025,106.0,105.0,102.0,13.4,1505.2,330.2,-0.8,1.8,2470.827,13.29,0.039,297.2
2022-07-07T06:52:03,42.805,6.029,-0.015,0.019,-0.035,105.0,105.0,102.0,13.4,1505.2,326.3,-0.7,1.8,2470.812,13.29,0.024,321.7
2022-07-07T06:55:03,42.805,6.029,-0.048,0.011,-0.024,105.0,105.0,103.0,13.4,1505.2,323.0,-0.8,1.8,2470.794,13.29,0.049,282.9
2022-07-07T06:58:03,42.805,6.029,-0.014,0.016,-0.02,106.0,105.0,103.0,13.4,1505.2,323.8,-0.8,1.8,2470.802,13.29,0.021,318.8
2022-07-07T07:04:03,42.805,6.029,-0.03,0.025,0.0,105.0,104.0,102.0,13.4,1505.2,330.2,-0.8,1.8,2470.855,13.28,0.039,309.8
2022-07-07T07:07:03,42.805,6.029,-0.055,-0.001,-0.016,105.0,105.0,103.0,13.4,1505.2,324.8,-0.8,1.8,2470.855,13.28,0.055,269.0
2022-07-07T07:10:03,42.805,6.029,-0.03,0.009,-0.049,105.0,104.0,104.0,13.3,1505.2,326.1,-0.8,1.8,2470.842,13.28,0.031,286.7
2022-07-07T07:13:03,42.805,6.029,-0.028,0.008,-0.006,104.0,105.0,103.0,13.4,1505.2,326.3,-0.7,1.8,2470.838,13.29,0.029,285.9
2022-07-07T07:16:03,42.805,6.029,-0.027,0.021,-0.004,104.0,104.0,103.0,13.3,1505.2,327.8,-0.7,1.8,2470.875,13.29,0.034,307.9
2022-07-07T07:19:03,42.805,6.029,-0.031,0.014,-0.013,104.0,103.0,103.0,13.3,1505.2,326.9,-0.8,1.8,2470.828,13.29,0.034,294.3
2022-07-07T07:22:03,42.805,6.029,-0.044,0.025,-0.02,106.0,103.0,103.0,13.4,1505.2,322.6,-0.7,1.8,2470.794,13.29,0.05,299.6
2022-07-07T07:25:03,42.805,6.029,-0.017,0.0,-0.003,104.0,105.0,102.0,13.3,1505.2,325.8,-0.7,1.8,2470.813,13.29,0.017,270.0
2022-07-07T07:28:03,42.805,6.029,-0.042,0.009,-0.023,105.0,104.0,103.0,13.4,1505.2,327.2,-0.7,1.8,2470.809,13.29,0.042,282.1
2022-07-07T07:31:03,42.805,6.029,-0.044,0.034,-0.012,104.0,105.0,102.0,13.4,1505.2,325.7,-0.7,1.8,2470.82,13.29,0.055,307.7
2022-07-07T07:34:03,42.805,6.029,-0.043,0.015,-0.022,106.0,105.0,102.0,13.4,1505.2,320.3,-0.7,1.8,2470.821,13.29,0.045,289.2
2022-07-07T07:37:03,42.805,6.029,-0.028,0.005,-0.015,106.0,104.0,102.0,13.4,1505.2,326.4,-0.7,1.8,2470.83,13.29,0.028,280.1
2022-07-07T07:40:03,42.805,6.029,-0.033,-0.003,-0.022,106.0,105.0,102.0,13.4,1505.2,327.4,-0.8,1.8,2470.822,13.29,0.033,264.8
2022-07-07T07:43:03,42.805,6.029,-0.032,0.011,-0.037,106.0,105.0,101.0,13.3,1505.2,323.6,-0.8,1.8,2470.806,13.29,0.033,289.0
2022-07-07T07:46:03,42.805,6.029,-0.027,0.022,0.0,105.0,105.0,102.0,13.3,1505.2,329.5,-0.8,1.8,2470.785,13.29,0.034,309.2
2022-07-07T07:49:03,42.805,6.029,-0.043,0.015,-0.036,106.0,106.0,103.0,13.4,1505.2,329.2,-0.7,1.8,2470.823,13.29,0.045,289.2
2022-07-07T07:52:03,42.805,6.029,-0.038,0.022,-0.056,105.0,104.0,101.0,13.4,1505.2,319.5,-0.8,1.8,2470.796,13.29,0.043,300.1
2022-07-07T07:55:03,42.805,6.029,-0.068,0.021,-0.041,105.0,104.0,102.0,13.4,1505.2,325.4,-0.8,1.8,2470.78,13.29,0.071,287.2
2022-07-07T07:58:03,42.805,6.029,-0.048,0.019,-0.032,106.0,105.0,103.0,13.3,1505.2,325.8,-0.8,1.8,2470.842,13.29,0.051,291.6
2022-07-07T08:04:03,42.805,6.029,-0.025,0.018,-0.034,106.0,105.0,102.0,13.4,1505.2,333.1,-0.8,1.8,2470.856,13.28,0.03,305.8
2022-07-07T08:07:03,42.805,6.029,-0.042,0.011,0.0,105.0,105.0,102.0,13.4,1505.2,325.4,-0.8,1.8,2470.838,13.28,0.043,284.7
2022-07-07T08:10:03,42.805,6.029,-0.027,0.017,-0.007,105.0,105.0,103.0,13.3,1505.2,332.5,-0.8,1.8,2470.834,13.28,0.031,302.2
2022-07-07T08:13:03,42.805,6.029,-0.051,0.009,-0.012,104.0,106.0,102.0,13.4,1505.2,331.5,-0.8,1.8,2470.862,13.29,0.051,280.0
2022-07-07T08:16:03,42.805,6.029,-0.022,0.016,-0.028,106.0,104.0,102.0,13.4,1505.2,332.9,-0.8,1.8,2470.866,13.29,0.027,306.0
2022-07-07T08:19:03,42.805,6.029,-0.031,0.025,-0.042,106.0,103.0,103.0,13.3,1505.2,329.8,-0.8,1.8,2470.768,13.29,0.039,308.9
2022-07-07T08:22:03,42.805,6.029,-0.006,0.016,0.004,105.0,104.0,103.0,13.4,1505.2,322.9,-0.8,1.8,2470.823,13.29,0.017,339.4
2022-07-07T08:25:03,42.805,6.029,-0.063,0.025,-0.02,105.0,104.0,103.0,13.4,1505.2,327.6,-0.7,1.8,2470.807,13.29,0.067,291.6
2022-07-07T08:28:03,42.805,6.029,-0.042,0.024,-0.007,105.0,105.0,103.0,13.4,1505.2,323.4,-0.8,1.8,2470.845,13.29,0.048,299.7
2022-07-07T08:31:03,42.805,6.029,-0.034,0.035,-0.022,105.0,105.0,102.0,13.4,1505.2,324.8,-0.8,1.8,2470.814,13.29,0.048,315.8
2022-07-07T08:34:03,42.805,6.029,-0.027,0.01,-0.046,106.0,106.0,102.0,13.3,1505.2,325.2,-0.8,1.8,2470.802,13.29,0.028,290.3
2022-07-07T08:37:03,42.805,6.029,-0.04,0.02,-0.015,106.0,105.0,102.0,13.3,1505.2,328.6,-0.7,1.9,2470.793,13.29,0.044,296.6
2022-07-07T08:40:03,42.805,6.029,-0.03,0.004,0.008,106.0,105.0,103.0,13.3,1505.2,323.5,-0.8,1.8,2470.819,13.29,0.03,277.6
2022-07-07T08:43:03,42.805,6.029,-0.061,0.016,-0.027,105.0,105.0,103.0,13.4,1505.2,322.2,-0.8,1.8,2470.831,13.29,0.063,284.7
2022-07-07T08:46:03,42.805,6.029,-0.024,0.017,-0.033,104.0,105.0,103.0,13.4,1505.2,328.3,-0.7,1.8,2470.794,13.29,0.029,305.3
2022-07-07T08:49:03,42.805,6.029,-0.037,0.017,-0.042,105.0,105.0,103.0,13.3,1505.2,321.4,-0.7,1.8,2470.853,13.29,0.04,294.7
2022-07-07T08:52:03,42.805,6.029,-0.024,0.035,-0.016,104.0,105.0,103.0,13.4,1505.2,333.9,-0.8,1.8,2470.814,13.29,0.042,325.6
2022-07-07T08:55:03,42.805,6.029,-0.045,0.03,-0.009,105.0,105.0,102.0,13.3,1505.2,328.7,-0.7,1.8,2470.817,13.29,0.054,303.7
2022-07-07T08:58:03,42.805,6.029,-0.029,0.03,-0.008,106.0,105.0,102.0,13.4,1505.2,331.3,-0.8,1.9,2470.816,13.29,0.041,316.0
2022-07-07T09:04:03,42.805,6.029,-0.052,0.034,-0.036,106.0,106.0,102.0,13.4,1505.2,327.6,-0.8,1.8,2470.856,13.28,0.062,303.2
2022-07-07T09:07:03,42.805,6.029,-0.045,-0.005,-0.041,105.0,105.0,102.0,13.3,1505.2,320.6,-0.8,1.8,2470.855,13.28,0.045,263.7
2022-07-07T09:10:03,42.805,6.029,-0.05,0.027,-0.014,106.0,104.0,103.0,13.4,1505.2,323.8,-0.8,1.8,2470.833,13.28,0.056,298.4
2022-07-07T09:13:03,42.805,6.029,-0.05,0.002,-0.041,105.0,106.0,103.0,13.4,1505.2,321.5,-0.8,1.8,2470.845,13.28,0.05,272.3
2022-07-07T09:16:03,42.805,6.029,-0.047,0.017,-0.026,105.0,106.0,103.0,13.3,1505.2,319.9,-0.8,1.8,2470.88,13.28,0.049,289.9
2022-07-07T09:19:03,42.805,6.029,-0.067,0.02,-0.013,106.0,104.0,103.0,13.4,1505.2,333.1,-0.8,1.8,2470.814,13.29,0.069,286.6
2022-07-07T09:22:03,42.805,6.029,-0.048,0.036,-0.008,106.0,104.0,102.0,13.3,1505.2,321.8,-0.8,1.8,2470.85,13.29,0.06,306.9
2022-07-07T09:25:03,42.805,6.029,-0.03,0.022,-0.026,106.0,104.0,104.0,13.4,1505.2,331.1,-0.8,1.8,2470.812,13.29,0.037,306.3
2022-07-07T09:28:03,42.805,6.029,-0.042,0.042,0.021,106.0,104.0,102.0,13.4,1505.2,325.6,-0.7,1.8,2470.857,13.29,0.059,315.0
2022-07-07T09:31:03,42.805,6.029,-0.028,0.015,0.009,105.0,105.0,101.0,13.4,1505.2,326.9,-0.8,1.8,2470.842,13.29,0.031,298.2
2022-07-07T09:34:03,42.805,6.029,-0.053,0.023,-0.023,104.0,104.0,102.0,13.3,1505.2,329.5,-0.7,1.8,2470.834,13.29,0.057,293.5
2022-07-07T09:37:03,42.805,6.029,-0.046,0.014,-0.013,105.0,105.0,102.0,13.4,1505.2,323.4,-0.8,1.8,2470.811,13.29,0.048,286.9
2022-07-07T09:40:03,42.805,6.029,-0.043,0.014,-0.028,104.0,105.0,101.0,13.4,1505.2,324.0,-0.7,1.8,2470.831,13.29,0.045,288.0
2022-07-07T09:43:03,42.805,6.029,-0.046,0.027,0.001,105.0,105.0,101.0,13.4,1505.2,332.9,-0.8,1.8,2470.761,13.29,0.053,300.4
2022-07-07T09:46:03,42.805,6.029,-0.047,0.033,-0.028,105.0,104.0,103.0,13.4,1505.2,329.1,-0.8,1.8,2470.836,13.29,0.057,305.1
2022-07-07T09:49:03,42.805,6.029,-0.033,0.041,0.019,105.0,104.0,102.0,13.4,1505.2,330.2,-0.8,1.8,2470.817,13.29,0.052,321.2
2022-07-07T09:52:03,42.805,6.029,-0.026,0.018,-0.039,105.0,105.0,101.0,13.3,1505.2,321.8,-0.8,1.8,2470.826,13.29,0.031,304.7
2022-07-07T09:55:03,42.805,6.029,-0.044,0.039,-0.027,105.0,104.0,101.0,13.4,1505.2,320.6,-0.8,1.8,2470.788,13.29,0.058,311.6